WB5OMR-9 Weather Reports


time (UTC)temp
C
wind
direction
speed
KPH
gust
KPH
rain 1hr
cm
rain 24hr
cm
rain mn
cm
humidity
%
barometer
mb
20260906081825 27 112 0.0 0.0 0.00 0.00 0.00 71 1011.9
20260906080825 27 112 0.0 0.0 0.00 0.00 0.00 72 1011.9
20260906075824 27 67 0.0 0.0 0.00 0.00 0.00 71 1012.2
20260906074823 27 67 0.0 0.0 0.00 0.00 0.00 72 1012.2
20260906073822 27 112 0.0 0.0 0.00 0.00 0.00 71 1012.5
20260906072821 27 157 0.0 0.0 0.00 0.00 0.00 71 1012.5
20260906071738 27 180 0.0 0.0 0.00 0.00 0.00 70 1012.9
20260906070737 27 247 0.0 0.0 0.00 0.00 0.00 68 1013.2
20260906065653 28 180 0.0 0.0 0.00 0.00 0.00 67 1012.9
20260906064652 28 157 0.0 0.0 0.00 0.00 0.00 66 1013.2
20260906063650 28 157 0.0 0.0 0.00 0.00 0.00 65 1013.2
20260906062649 28 180 0.0 0.0 0.00 0.00 0.00 64 1013.2
20260906061648 28 157 0.0 0.0 0.00 0.00 0.00 64 1013.2
20260906060647 28 157 0.0 0.0 0.00 0.00 0.00 63 1013.2
20260906055645 28 157 0.0 0.0 0.00 0.00 0.00 63 1013.5
20260906054601 28 135 0.0 0.0 0.00 0.00 0.00 63 1013.5
20260906053600 28 157 0.0 0.0 0.00 0.00 0.00 62 1013.2
20260906052559 29 135 0.0 0.0 0.00 0.00 0.00 62 1013.2
20260906051558 29 157 0.0 0.0 0.00 0.00 0.00 62 1013.2
20260906050558 29 135 0.0 0.0 0.00 0.00 0.00 61 1013.2
20260906045556 29 157 0.0 0.0 0.00 0.00 0.00 61 1013.2
20260906044555 29 135 0.0 0.0 0.00 0.00 0.00 60 1013.2
20260906043512 30 180 0.0 0.0 0.00 0.00 0.00 60 1013.2
20260906042511 30 157 0.0 0.0 0.00 0.00 0.00 59 1013.2
20260906041510 30 135 0.0 0.0 0.00 0.00 0.00 59 1013.2
20260906040509 30 157 0.0 0.0 0.00 0.00 0.00 58 1013.2
20260906035507 30 157 0.0 0.0 0.00 0.00 0.00 58 1013.2
20260906034506 30 135 0.0 0.0 0.00 0.00 0.00 57 1013.2
20260906033423 31 180 0.0 0.0 0.00 0.00 0.00 56 1012.9
20260906032339 31 135 0.0 0.0 0.00 0.00 0.00 55 1012.9
20260906031256 31 135 0.0 0.0 0.00 0.00 0.00 54 1012.5
20260906030255 31 157 0.0 0.0 0.00 0.00 0.00 54 1012.2
20260906025254 31 157 0.0 0.0 0.00 0.00 0.00 53 1011.5
20260906024252 32 157 0.0 0.0 0.00 0.00 0.00 51 1011.9
20260906023209 32 135 0.0 0.0 0.00 0.00 0.00 49 1012.2
20260906022208 32 112 0.0 0.0 0.00 0.00 0.00 48 1012.2
20260906021125 32 112 0.0 0.0 0.00 0.00 0.00 46 1011.9
20260906020042 32 112 0.0 0.0 0.00 0.00 0.00 45 1011.5
20260906014958 33 112 0.0 0.0 0.00 0.00 0.00 45 1011.2
20260906013914 33 135 0.0 0.0 0.00 0.00 0.00 44 1010.8
20260906012831 33 112 0.0 0.0 0.00 0.00 0.00 44 1010.8
20260906011830 34 112 0.0 0.0 0.00 0.00 0.00 43 1010.8
20260906010747 34 112 0.0 0.0 0.00 0.00 0.00 42 1010.5
20260906005703 35 90 0.0 0.0 0.00 0.00 0.00 42 1010.8
20260906004702 35 90 0.0 0.0 0.00 0.00 0.00 41 1010.8
20260906003701 35 112 0.0 0.0 0.00 0.00 0.00 40 1010.5
20260906002700 35 135 0.0 0.0 0.00 0.00 0.00 39 1010.5
20260906001659 36 90 0.0 0.0 0.00 0.00 0.00 38 1010.5
20260906000616 36 112 0.0 0.0 0.00 0.00 0.00 38 1010.5
20260905235615 37 135 0.0 0.0 0.00 0.00 0.00 38 1010.5
20260905234614 37 135 0.0 0.0 0.00 0.00 0.00 38 1010.5
20260905233613 37 247 0.0 0.0 0.00 0.00 0.00 39 1010.5
20260905232612 37 247 0.0 0.0 0.00 0.00 0.00 39 1010.5
20260905231611 37 247 0.0 0.0 0.00 0.00 0.00 38 1010.5
20260905230610 37 135 0.0 0.0 0.00 0.00 0.00 39 1010.5
20260905225609 37 135 0.0 0.0 0.00 0.00 0.00 38 1010.5
20260905224608 38 157 0.0 0.0 0.00 0.00 0.00 37 1010.5
20260905223607 39 247 0.0 0.0 0.00 0.00 0.00 36 1010.2
20260905222606 38 157 0.0 0.0 0.00 0.00 0.00 36 1010.5
20260905221605 39 112 0.0 0.0 0.00 0.00 0.00 36 1010.5
20260905220604 39 135 0.0 0.0 0.00 0.00 0.00 36 1010.5
20260905215604 39 157 0.0 0.0 0.00 0.00 0.00 38 1010.5
20260905214602 38 45 0.0 0.0 0.00 0.00 0.00 40 1010.5
20260905213601 37 247 0.0 0.0 0.00 0.00 0.00 40 1010.5
20260905212601 38 90 0.0 0.0 0.00 0.00 0.00 39 1010.8
20260905211559 38 135 0.0 0.0 0.00 0.00 0.00 40 1010.8
20260905210558 37 90 0.0 0.0 0.00 0.00 0.00 42 1010.8
20260905205557 37 157 0.0 0.0 0.00 0.00 0.00 42 1011.2
20260905204556 37 90 0.0 0.0 0.00 0.00 0.00 43 1011.5
20260905203555 37 112 0.0 0.0 0.00 0.00 0.00 42 1011.5
20260905202553 39 157 0.0 0.0 0.00 0.00 0.00 40 1011.9
20260905201509 40 112 0.0 0.0 0.00 0.00 0.00 39 1011.9
20260905200509 40 67 0.0 0.0 0.00 0.00 0.00 39 1012.2
20260905195508 39 180 0.0 0.0 0.00 0.00 0.00 40 1012.2
20260905194507 39 180 0.0 0.0 0.00 0.00 0.00 42 1012.2
20260905193506 38 180 0.0 0.0 0.00 0.00 0.00 43 1012.9
20260905192505 37 157 0.0 0.0 0.00 0.00 0.00 45 1013.2
20260905191504 37 180 0.0 0.0 0.00 0.00 0.00 44 1013.5
20260905190503 37 247 0.0 0.0 0.00 0.00 0.00 45 1013.9
20260905185502 36 135 0.0 0.0 0.00 0.00 0.00 45 1013.2
20260905184501 35 157 0.0 0.0 0.00 0.00 0.00 46 1012.9
20260905183500 36 180 0.0 0.0 0.00 0.00 0.00 48 1012.9
20260905182500 36 135 0.0 0.0 0.00 0.00 0.00 49 1013.2
20260905181459 36 202 0.0 0.0 0.00 0.00 0.00 50 1013.5
20260905180457 36 67 0.0 0.0 0.00 0.00 0.00 52 1013.9
20260905175456 35 112 0.0 0.0 0.00 0.00 0.00 53 1013.9
20260905174456 34 157 0.0 0.0 0.00 0.00 0.00 55 1014.2
20260905173455 33 157 0.0 0.0 0.00 0.00 0.00 57 1014.2
20260905172453 33 157 0.0 0.0 0.00 0.00 0.00 58 1014.6
20260905171451 33 135 0.0 0.0 0.00 0.00 0.00 59 1014.6
20260905170450 33 180 0.0 0.0 0.00 0.00 0.00 61 1014.6
20260905165449 32 157 0.0 0.0 0.00 0.00 0.00 61 1014.6
20260905164448 32 180 0.0 0.0 0.00 0.00 0.00 63 1014.6
20260905163447 32 202 0.0 0.0 0.00 0.00 0.00 63 1014.6
20260905162446 31 157 0.0 0.0 0.00 0.00 0.00 66 1014.6
20260905161445 31 247 0.0 0.0 0.00 0.00 0.00 69 1014.6
20260905160444 30 180 0.0 0.0 0.00 0.00 0.00 69 1014.9
20260905155442 31 180 0.0 0.0 0.00 0.00 0.00 69 1014.6
20260905154441 31 157 0.0 0.0 0.00 0.00 0.00 69 1014.6
20260905153440 31 157 0.0 0.0 0.00 0.00 0.00 69 1014.6
20260905152439 31 180 0.0 0.0 0.00 0.00 0.00 71 1014.6
20260905151438 30 135 0.0 0.0 0.00 0.00 0.00 75 1014.6
20260905150354 28 157 0.0 0.0 0.00 0.00 0.00 77 1014.6
20260905145310 28 157 0.0 0.0 0.00 0.00 0.00 77 1014.6
20260905144309 28 135 0.0 0.0 0.00 0.00 0.00 78 1014.6
20260905143308 28 135 0.0 0.0 0.00 0.00 0.00 78 1014.6
20260905142308 28 112 0.0 0.0 0.00 0.00 0.00 79 1014.6
20260905141307 27 112 0.0 0.0 0.00 0.00 0.00 80 1014.6
20260905140306 27 90 0.0 0.0 0.00 0.00 0.00 80 1014.6
20260905135306 27 135 0.0 0.0 0.00 0.00 0.00 80 1014.2
20260905134304 27 90 0.0 0.0 0.00 0.00 0.00 80 1014.2
20260905133302 27 157 0.0 0.0 0.00 0.00 0.00 80 1014.2
20260905132305 27 135 0.0 0.0 0.00 0.00 0.00 81 1014.2
20260905131218 27 135 0.0 0.0 0.00 0.00 0.00 81 1013.9
20260905130134 27 112 0.0 0.0 0.00 0.00 0.00 81 1013.9
20260905125134 26 90 0.0 0.0 0.00 0.00 0.00 81 1013.5
20260905124133 26 90 0.0 0.0 0.00 0.00 0.00 81 1013.5
20260905123132 26 67 0.0 0.0 0.00 0.00 0.00 81 1013.5
20260905122131 26 112 0.0 0.0 0.00 0.00 0.00 81 1013.2
20260905121129 26 67 0.0 0.0 0.00 0.00 0.00 80 1013.2
20260905120046 26 112 0.0 0.0 0.00 0.00 0.00 80 1013.2
20260905115002 26 112 0.0 0.0 0.00 0.00 0.00 79 1013.2
20260905113919 26 112 0.0 0.0 0.00 0.00 0.00 80 1013.2
20260905112918 26 112 0.0 0.0 0.00 0.00 0.00 79 1013.2
20260905111917 26 112 0.0 0.0 0.00 0.00 0.00 79 1012.9
20260905110917 26 112 0.0 0.0 0.00 0.00 0.00 79 1012.9
20260905105915 27 135 0.0 0.0 0.00 0.00 0.00 79 1012.9
20260905104914 27 90 0.0 0.0 0.00 0.00 0.00 78 1012.9
20260905103913 27 112 0.0 0.0 0.00 0.00 0.00 78 1012.9
20260905102913 27 112 0.0 0.0 0.00 0.00 0.00 78 1012.9
20260905101911 27 112 0.0 0.0 0.00 0.00 0.00 78 1012.9
20260905100910 27 112 0.0 0.0 0.00 0.00 0.00 78 1012.9
20260905095909 27 112 0.0 0.0 0.00 0.00 0.00 78 1012.9
20260905094908 27 90 0.0 0.0 0.00 0.00 0.00 77 1012.9
20260905093907 27 157 0.0 0.0 0.00 0.00 0.00 77 1012.9
20260905092906 27 135 0.0 0.0 0.00 0.00 0.00 77 1013.2
20260905091905 27 112 0.0 0.0 0.00 0.00 0.00 77 1013.2
20260905090904 27 135 0.0 0.0 0.00 0.00 0.00 75 1013.2
20260905085903 27 157 0.0 0.0 0.00 0.00 0.00 75 1013.2
20260905084902 27 135 0.0 0.0 0.00 0.00 0.00 75 1013.2
20260905083901 27 135 0.0 0.0 0.00 0.00 0.00 75 1013.2
20260905082818 27 112 0.0 0.0 0.00 0.00 0.00 74 1013.2